Weather History for Asheville, NC

Change the Weather History Date:

Thursday, July 17, 2008

  Actual Average Record
Temperature  
Mean Temperature 70 °F 74 °F  
Max Temperature 83 °F 84 °F 95 °F (1980)
Min Temperature 56 °F 64 °F 54 °F (1939)
Degree Days  
Heating Degree Days 0 0  
Month to date heating degree days 1 0  
Since 1 June heating degree days 14  
Since 1 July heating degree days 1 0  
Cooling Degree Days 5 9  
Month to date cooling degree days 114 149  
Year to date cooling degree days 385 384  
Since 1 June cooling degree days 326  
Growing Degree Days 20 (Base 50)    
Moisture  
Dew Point 57 °F    
Average Humidity 69    
Maximum Humidity 100    
Minimum Humidity 37    
Precipitation  
Precipitation 0.00 in 0.14 in 1.43 in (1984)
Month to date precipitation 3.36 2.38  
Year to date precipitation 19.24 25.28  
Snow  
Snow 0.00 in 0.00 in 0.00 in ()
Month to date snowfall 0.0 0.0  
Since 1 June snowfall 0.0  
Since 1 July snowfall 0.0 0.0  
Snow Depth -    
Sea Level Pressure  
Sea Level Pressure 30.19 in    
Wind  
Wind Speed 2 mph (ESE)    
Max Wind Speed 9 mph    
Max Gust Speed 13 mph    
Visibility 6 miles    
Events Fog    
T = Trace of Precipitation, MM = Missing Value Source: NWS Daily Summary

Daily Weather History Graph

Daily Weather History Graph

Search for Another Location

Airport:

Trip Planner

Search our weather history database for the weather conditions in past years. The results will help you decide how hot, cold, wet, or windy it might be!

Date:

Astronomy

Jul. 17, 2008 Rise Set
Actual Time 6:28 AM EDT 8:44 PM EDT
Civil Twilight 5:59 AM EDT 9:13 PM EDT
Nautical Twilight 5:23 AM EDT 9:48 PM EDT
Astronomical Twilight 4:44 AM EDT 10:27 PM EDT
Moon 8:37 PM EDT (7/17) 5:32 AM EDT (7/17)
Length of Visible Light 15h 14m
Length of Day
14h 16m
Full, 100% of the Moon is Illuminated
Jul 17
Full
Jul 18
Full
Jul 25
Last Quarter
Aug 1
New
Aug 8
First Quarter

Hourly Weather History & Observations

Time (EDT) Temp. Heat Index Dew Point Humidity Pressure Visibility Wind Dir Wind Speed Gust Speed Precip Events Conditions
12:54 AM 66.0 °F - 61.0 °F 84% 30.19 in 7.0 mi Calm Calm - N/A   Scattered Clouds
1:54 AM 64.0 °F - 61.0 °F 90% 30.19 in 6.0 mi Calm Calm - N/A   Clear
2:54 AM 62.1 °F - 61.0 °F 96% 30.17 in 4.0 mi Calm Calm - N/A   Clear
3:54 AM 62.1 °F - 60.1 °F 93% 30.17 in 4.0 mi Calm Calm - N/A   Clear
4:47 AM 59.0 °F - 57.2 °F 94% 30.24 in 1.8 mi South 3.5 mph - N/A   Clear
4:49 AM 57.2 °F - 57.2 °F 100% 30.24 in 0.8 mi Calm Calm - N/A   Clear
4:54 AM 59.0 °F - 59.0 °F 100% 30.17 in 0.5 mi Calm Calm - N/A Fog Fog
5:04 AM 59.0 °F - 59.0 °F 100% 30.24 in 1.5 mi Calm Calm - N/A   Clear
5:22 AM 59.0 °F - 57.2 °F 94% 30.24 in 3.0 mi Calm Calm - N/A   Clear
5:54 AM 57.9 °F - 57.0 °F 97% 30.18 in 2.5 mi Calm Calm - N/A   Clear
6:04 AM 57.2 °F - 57.2 °F 100% 30.25 in 1.8 mi Calm Calm - N/A   Clear
6:11 AM 57.2 °F - 57.2 °F 100% 30.25 in 3.0 mi Calm Calm - N/A   Clear
6:19 AM 57.2 °F - 57.2 °F 100% 30.26 in 2.0 mi Calm Calm - N/A   Clear
6:29 AM 57.2 °F - 57.2 °F 100% 30.26 in 1.8 mi Calm Calm - N/A   Clear
6:40 AM 57.2 °F - 55.4 °F 94% 30.26 in 0.5 mi Calm Calm - N/A Fog Fog
6:45 AM 57.2 °F - 57.2 °F 100% 30.26 in 1.5 mi Calm Calm - N/A   Clear
6:50 AM 57.2 °F - 57.2 °F 100% 30.26 in 3.0 mi Calm Calm - N/A   Clear
6:54 AM 57.9 °F - 57.0 °F 97% 30.19 in 3.0 mi Calm Calm - N/A   Clear
7:29 AM 59.0 °F - 57.2 °F 94% 30.27 in 2.0 mi Calm Calm - N/A   Clear
7:54 AM 61.0 °F - 59.0 °F 93% 30.20 in 3.0 mi Calm Calm - N/A   Clear
8:54 AM 66.9 °F - 60.1 °F 79% 30.21 in 6.0 mi NNW 5.8 mph - N/A   Haze
9:54 AM 73.0 °F - 61.0 °F 66% 30.20 in 8.0 mi NNW 5.8 mph - N/A   Clear
10:54 AM 75.9 °F - 57.9 °F 54% 30.19 in 9.0 mi Variable 4.6 mph - N/A   Partly Cloudy
11:54 AM 79.0 °F - 54.0 °F 42% 30.19 in 10.0 mi Variable 4.6 mph - N/A   Partly Cloudy
12:54 PM 78.1 °F - 54.0 °F 43% 30.18 in 10.0 mi Variable 3.5 mph - N/A   Mostly Cloudy
1:54 PM 80.1 °F 79.9 °F 53.1 °F 39% 30.17 in 10.0 mi Variable 4.6 mph - N/A   Scattered Clouds
2:54 PM 81.0 °F 80.5 °F 54.0 °F 39% 30.15 in 10.0 mi SE 8.1 mph - N/A   Partly Cloudy
3:54 PM 82.0 °F 81.3 °F 54.0 °F 38% 30.13 in 10.0 mi Variable 3.5 mph - N/A   Clear
4:54 PM 82.0 °F 81.3 °F 54.0 °F 38% 30.13 in 10.0 mi Calm Calm - N/A   Clear
5:54 PM 81.0 °F 80.5 °F 54.0 °F 39% 30.12 in 10.0 mi ESE 6.9 mph - N/A   Clear
6:54 PM 80.1 °F 80.0 °F 54.0 °F 40% 30.12 in 10.0 mi Variable 4.6 mph - N/A   Clear
7:54 PM 79.0 °F - 54.0 °F 42% 30.11 in 10.0 mi ESE 3.5 mph - N/A   Clear
8:54 PM 73.0 °F - 57.0 °F 57% 30.12 in 10.0 mi Calm Calm - N/A   Clear
9:54 PM 69.1 °F - 55.9 °F 63% 30.12 in 10.0 mi Calm Calm - N/A   Clear
10:54 PM 66.0 °F - 57.0 °F 73% 30.13 in 10.0 mi Calm Calm - N/A   Clear
11:54 PM 64.9 °F - 57.9 °F 78% 30.12 in 9.0 mi Calm Calm - N/A   Clear